This demonstration page uses our WeatherBlox Daily Observations layout. Learn more.

38.88101, -77.10428

Hourly Observations for January 6, 2016

Temp ( °F °C ) Dew Point ( °F °C ) Humidity (%) Winds ( mph kmh ) Pressure ( in mb ) Visibility ( mi km ) Precip ( " mm )
12:52 am 00:52 Clear 24 -4.4 14 -10 65 65 Calm 30.63 1037 10 16.0934 0 0
1:52 am 01:52 Clear 22 -5.6 13 -10.6 68 68 WSW 3 6 30.63 1037 10 16.0934 0 0
2:52 am 02:52 Clear 22 -5.6 13 -10.6 68 68 WSW 5 7 30.63 1037 10 16.0934 0 0
3:52 am 03:52 Clear 22 -5.6 14 -10 71 71 SW 3 6 30.63 1037 10 16.0934 0 0
4:52 am 04:52 Clear 22 -5.6 12 -11.1 66 66 Calm 30.62 1037 10 16.0934 0 0
5:52 am 05:52 Clear 21 -6.1 14 -10 74 74 WSW 3 6 30.63 1037 10 16.0934 0 0
6:52 am 06:52 Mostly Cloudy 22 -5.6 13 -10.6 68 68 N 3 6 30.62 1037 10 16.0934 0 0
7:52 am 07:52 Mostly Cloudy 23 -5 16 -8.9 74 74 NE 5 7 30.61 1037 10 16.0934 0 0
8:52 am 08:52 Partly Cloudy 26 -3.3 18 -7.8 71 71 ENE 3 6 30.61 1037 10 16.0934 0 0
9:52 am 09:52 Mostly Sunny 28 -2.2 17 -8.3 63 63 SSE 3 6 30.62 1037 10 16.0934 0 0
10:52 am 10:52 Sunny 32 0 13 -10.6 45 45 SSE 7 11 30.6 1036 10 16.0934 0 0
11:52 am 11:52 Sunny 34 1.1 8 -13.3 34 34 S 7 11 30.57 1035 10 16.0934 0 0
12:52 pm 12:52 Sunny 37 2.8 4 -15.6 25 25 S 7 11 30.53 1034 10 16.0934 0 0
1:52 pm 13:52 Sunny 38 3.3 8 -13.3 29 29 S 7 11 30.5 1033 10 16.0934 0 0
2:52 pm 14:52 Mostly Sunny 40 4.4 13 -10.6 33 33 S 6 9 30.49 1032 10 16.0934 0 0
3:52 pm 15:52 Mostly Sunny 40 4.4 12 -11.1 32 32 S 5 7 30.47 1032 10 16.0934 0 0
4:52 pm 16:52 Mostly Sunny 38 3.3 10 -12.2 31 31 SSW 3 6 30.46 1032 10 16.0934 0 0
5:52 pm 17:52 Mostly Clear 38 3.3 16 -8.9 41 41 SSW 3 6 30.45 1031 10 16.0934 0 0
6:52 pm 18:52 Mostly Clear 35 1.7 20 -6.7 54 54 S 5 7 30.47 1032 10 16.0934 0 0
7:39 pm 19:39 Mostly Cloudy 36 2.2 19 -7.2 50 50 Calm 30.48 1032 10 16.0934 0 0
7:52 pm 19:52 Mostly Cloudy 36 2.2 20 -6.7 52 52 ESE 3 6 30.47 1032 10 16.0934 0 0
8:52 pm 20:52 Mostly Cloudy 36 2.2 19 -7.2 50 50 Calm 30.46 1032 10 16.0934 0 0
9:52 pm 21:52 Mostly Cloudy 36 2.2 23 -5 59 59 ESE 3 6 30.45 1031 10 16.0934 0 0
10:52 pm 22:52 Partly Cloudy 37 2.8 22 -5.6 54 54 ESE 3 6 30.44 1031 10 16.0934 0 0
11:52 pm 23:52 Cloudy 36 2.2 23 -5 59 59 Calm 30.42 1030 10 16.0934 0 0

Powered by AerisWeather